Starlink 32278

operational
NORAD ID: 60356 Int'l Des: 2024-138 Owner: SPXS Country: US Constellation: starlink
LEOCIRCULAR

Starlink 32278について

説明を読み込み中...

リアルタイム位置

3D地球を読み込み中...

次回通過

高度履歴

Altitude vs Time

uPlot chart will show altitude changes over time

軌道要素

1 60356U 24138B 25260.61104552 -.00000671 00000-0 -10543-4 0 9990
2 60356 53.1616 33.8721 0001102 97.3124 262.8002 15.30194229 64127
Epoch: Sep 17, 2025 • Age: 26 hours

現在のステータス

高度 479.5 km
速度 7.63 km/s
衛星直下点 -15.56°S, 26.23°W
打ち上げ日 Aug 4, 2024
運用期間 1.1 years
タイプ internet

技術仕様

分類 Payload
質量 730.00 kg
乾燥質量 700.00 kg
総質量 730.00 kg
長さ 0.30 m
直径 4.10 m
スパン 29.00 m
形状 Box + pan
製造者 SPXS
バスタイプ Starlink V2M
フェーズステータス In Orbit
所有者/国 SPXS/US

大規模コンステレーション

Loading constellations...